Hourly Data Report for September 29, 2017

All times are specified in Local Standard Time (LST). Add 1 hour to adjust for Daylight Saving Time where and when it is observed.

KAMLOOPS A
BRITISH COLUMBIA

50°42'09.000" N
120°26'55.000" W
345.30 m
1163781
71887
YKA

Download Data

Hourly Data (September 2017)
Hourly Data Report for September 29, 2017
Temp Definition
°C
Dew Point Temp Definition
°C
Rel Hum Definition
%
Wind Dir Definition
10's deg

Wind Spd Definition
km/h
Visibility Definition
km
Stn Press Definition
kPa
Hmdx Definition


Wind Chill Definition


Weather Definition


TIME
00:00 Legend Double Dagger 17.1 7.2 52 11 29 64.4 97.11     LegendNANA
01:00 Legend Double Dagger 16.5 7.6 55 10 28 64.4 97.11     Clear
02:00 Legend Double Dagger 15.3 7.5 59 9 25 64.4 97.10     LegendNANA
03:00 Legend Double Dagger 14.2 5.5 55 9 18 64.4 97.10     LegendNANA
04:00 Legend Double Dagger 13.4 6.5 62 10 20 64.4 97.09     Clear
05:00 Legend Double Dagger 11.5 5.4 66 5 7 64.4 97.06     LegendNANA
06:00 Legend Double Dagger 12.0 6.8 70 9 18 64.4 97.06     LegendNANA
07:00 Legend Double Dagger 12.9 6.6 65 9 27 64.4 97.04     Mainly Clear
08:00 Legend Double Dagger 14.5 7.3 62 10 26 64.4 97.01     LegendNANA
09:00 Legend Double Dagger 16.8 8.0 56 11 21 64.4 96.97     LegendNANA
10:00 Legend Double Dagger 17.6 8.0 53 9 8 64.4 96.91     Mostly Cloudy
11:00 Legend Double Dagger 19.5 7.6 46 15 8 64.4 96.85     LegendNANA
12:00 Legend Double Dagger 19.7 8.2 47 32 9 64.4 96.83     LegendNANA
13:00 Legend Double Dagger 23.5 6.5 33 25 32 64.4 96.75     Mostly Cloudy
14:00 Legend Double Dagger 22.6 7.2 37 28 15 64.4 96.73     LegendNANA
15:00 Legend Double Dagger 22.3 6.8 36 25 25 64.4 96.74     LegendNANA
16:00 Legend Double Dagger 21.2 7.3 40 24 13 64.4 96.77     Cloudy
17:00 Legend Double Dagger 19.2 9.0 51 5 22 64.4 96.78     LegendNANA
18:00 Legend Double Dagger 17.6 10.2 61 8 10 64.4 96.81     LegendNANA
19:00 Legend Double Dagger 16.7 10.4 66 10 21 64.4 96.82     Mostly Cloudy
20:00 Legend Double Dagger 16.4 9.8 65 6 10 64.4 96.83     LegendNANA
21:00 Legend Double Dagger 16.0 10.3 69 7 16 64.4 96.87     LegendNANA
22:00 Legend Double Dagger 15.0 9.2 68 8 5 64.4 96.91     Mostly Cloudy
23:00 Legend Double Dagger 13.9 9.5 75 8 15 64.4 96.92     LegendNANA

Notes on Data Quality.

Legend

  • E = Estimated
  • M = Missing
  • NA = Not Available
  • ‡ = Partner data that is not subject to review by the National Climate Archives
Date modified: